User: anonymous   Login
Location: *
(44.1392°N, 4.8079°E)
Time: 09:30:03
(UTC+00:00)
Language:

deb Meteor - Orbit

View from above orbital plane
View from above orbital plane
View from above satellite
View from above satellite

Ground track
Ground track

The orbit data is extracted from the following two-line orbital elements,

1 25255U 81043D   22229.13668833  .00000005  00000-0 -41098-5 0  9993
2 25255  81.2812  92.1117 0045194 225.1842 262.6709 14.08031935325096
Epoch (UTC): 17 August 2022 03:16:49
Eccentricity: 0.0045194
inclination: 81.2812°
perigee height: 833 km
apogee height: 899 km
right ascension of ascending node: 92.1117°
argument of perigee: 225.1842°
revolutions per day: 14.08031935
mean anomaly at epoch: 262.6709°
orbit number at epoch: 32509

The dashed part of the orbit path shows where the satellite is in the earth's shadow,  

DLR